period_start,C,m1,H,J0,J1,J2,J3,J4,J5,JA,JB,JC,JD,JJ,JK,JN,#
2017-02-10 00:03:49,0.29,13.57,0.00,23.08,26.52,30.19,14.84,55.68,1034.47,2026.57,976.00,1197.99,1331.85,599.86,606.20,42.06,0000 0000 0000 0000 000000
2017-02-10 00:08:50,0.35,13.59,0.00,23.08,26.52,30.11,14.92,55.66,1034.63,2026.39,974.68,1197.03,1330.75,599.52,605.98,42.11,0000 0000 0000 0000 000000
2017-02-10 00:13:52,0.31,13.61,0.00,23.08,26.52,30.08,14.91,55.81,1034.68,2026.35,973.42,1196.08,1329.70,599.88,606.26,42.16,0000 0000 0000 0000 000000
2017-02-10 00:18:53,0.35,13.62,0.00,23.07,26.51,30.06,14.86,55.78,1034.68,2026.42,972.09,1195.12,1328.59,600.03,606.44,42.21,0000 0000 0000 0000 000000
2017-02-10 00:23:54,0.37,13.64,0.00,23.29,26.51,30.16,14.84,55.64,1034.68,2026.69,970.82,1194.21,1327.56,599.76,605.80,42.26,0000 0000 0000 0000 000000
2017-02-10 00:28:56,0.34,13.66,0.00,23.35,26.52,30.22,14.92,55.79,1034.68,2026.75,969.55,1193.26,1326.46,600.19,606.05,42.31,0000 0000 0000 0000 000000
2017-02-10 00:33:57,0.32,13.68,0.00,23.33,26.52,30.24,14.94,55.92,1034.70,2026.86,968.30,1192.36,1325.38,600.22,606.18,42.36,0000 0000 0000 0000 000000
2017-02-10 00:38:58,0.27,13.69,0.00,23.27,26.52,30.28,14.92,55.84,1034.69,2026.57,966.93,1191.33,1324.26,600.13,606.22,42.41,0000 0000 0000 0000 000000
2017-02-10 00:43:59,0.39,13.71,0.00,23.26,26.53,30.27,14.82,55.87,1034.69,2026.64,965.60,1190.38,1323.18,599.82,605.88,42.46,0000 0000 0000 0000 000000
2017-02-10 00:49:01,0.31,13.73,0.00,23.26,26.55,30.29,14.84,55.92,1034.69,2026.57,964.36,1189.45,1322.01,599.93,605.97,42.51,0000 0000 0000 0000 000000
2017-02-10 00:54:02,0.36,13.74,0.00,23.19,26.55,30.31,14.88,55.92,1034.70,2026.59,962.95,1188.41,1320.84,599.99,606.23,42.57,0000 0000 0000 0000 000000
2017-02-10 00:59:04,0.35,13.76,0.00,23.28,26.55,30.28,14.89,55.96,1034.69,2026.59,961.68,1187.45,1319.77,600.17,606.23,42.62,0000 0000 0000 0000 000000
2017-02-10 01:04:05,0.27,13.78,0.00,23.33,26.55,30.30,14.90,55.95,1034.69,2026.19,960.39,1186.49,1318.61,600.21,606.24,42.67,0000 0000 0000 0000 000000
2017-02-10 01:09:06,0.32,13.79,0.00,23.27,26.55,30.30,14.81,55.98,1034.69,2026.28,959.21,1185.58,1317.55,599.78,605.75,42.72,0000 0000 0000 0000 000000
2017-02-10 01:14:08,0.38,13.81,0.00,23.21,26.55,30.30,14.87,56.02,1034.68,2026.32,957.86,1184.56,1316.41,600.01,606.19,42.77,0000 0000 0000 0000 000000
2017-02-10 01:19:09,0.38,13.83,0.00,23.16,26.55,30.29,14.86,55.98,1034.68,2026.31,956.43,1183.39,1315.06,600.03,606.36,42.82,0000 0000 0000 0000 000000
2017-02-10 01:24:10,0.32,13.85,0.00,23.11,26.55,30.21,14.91,55.95,1034.68,2026.26,955.04,1182.35,1313.88,600.13,606.50,42.87,0000 0000 0000 0000 000000
2017-02-10 01:29:11,0.40,13.87,0.00,23.09,26.54,30.17,14.95,56.00,1034.67,2026.12,953.58,1181.29,1312.64,600.15,606.58,42.92,0000 0000 0000 0000 000000
2017-02-10 01:34:12,0.33,13.89,0.00,23.16,26.52,30.12,14.83,55.88,1034.62,2026.14,952.22,1180.24,1311.48,600.12,606.34,42.97,0000 0000 0000 0000 000000
2017-02-10 01:39:14,0.33,13.90,0.00,23.33,26.52,30.18,14.77,55.91,1034.59,2026.08,950.93,1179.29,1310.38,599.86,605.76,43.02,0000 0000 0000 0000 000000
2017-02-10 01:44:15,0.34,13.92,0.00,23.34,26.52,30.24,14.82,56.03,1034.56,2026.08,949.76,1178.34,1309.32,600.03,605.88,43.07,0000 0000 0000 0000 000000
2017-02-10 01:49:16,0.32,13.93,0.00,23.35,26.52,30.27,14.90,56.06,1034.52,2026.14,948.58,1177.56,1308.37,599.99,605.79,43.12,0000 0000 0000 0000 000000
2017-02-10 01:54:17,0.29,13.95,0.00,23.31,26.54,30.25,14.81,56.06,1034.45,2026.18,947.48,1176.79,1307.43,599.79,605.61,43.17,0000 0000 0000 0000 000000
2017-02-10 01:59:18,0.25,13.96,0.00,23.31,26.55,30.29,14.83,55.94,1034.29,2026.19,946.44,1176.02,1306.60,600.06,605.83,43.22,0000 0000 0000 0000 000000
2017-02-10 02:04:19,0.19,13.97,0.00,23.35,26.55,30.31,14.82,55.99,1034.23,2026.09,945.66,1175.30,1305.95,600.16,605.74,43.27,0000 0000 0000 0000 000000
2017-02-10 02:09:21,0.21,13.99,0.00,23.32,26.55,30.31,14.88,56.09,1034.29,2026.06,944.77,1174.78,1305.11,600.20,605.89,43.32,0000 0000 0000 0000 000000
2017-02-10 02:14:22,0.22,14.00,0.00,23.28,26.55,30.32,14.86,56.14,1034.30,2026.06,943.87,1174.03,1304.32,600.16,606.05,43.37,0000 0000 0000 0000 000000
2017-02-10 02:19:24,0.26,14.01,0.00,23.29,26.55,30.32,14.85,56.13,1034.27,2026.13,943.01,1173.40,1303.74,599.81,605.73,43.42,0000 0000 0000 0000 000000
2017-02-10 02:24:25,0.16,14.02,0.00,23.32,26.56,30.33,14.88,56.28,1034.27,2026.09,942.14,1172.99,1303.04,599.94,605.68,43.48,0000 0000 0000 0000 000000
2017-02-10 02:29:26,0.21,14.03,0.00,23.31,26.56,30.32,14.85,56.27,1034.27,2026.09,941.69,1172.40,1302.63,600.01,605.77,43.53,0000 0000 0000 0000 000000
2017-02-10 02:34:28,0.10,14.04,0.00,23.29,26.57,30.29,14.86,56.33,1034.40,2026.13,941.01,1172.00,1302.01,599.89,605.81,43.58,0000 0000 0000 0000 000000
2017-02-10 02:39:29,0.24,14.05,0.00,23.36,26.57,30.29,14.84,56.36,1034.48,2026.11,940.27,1171.60,1301.49,599.84,605.67,43.63,0000 0000 0000 0000 000000
2017-02-10 02:44:30,0.07,14.06,0.00,23.30,26.57,30.30,14.90,56.48,1034.25,2026.17,939.93,1171.03,1301.01,600.05,605.73,43.68,0000 0000 0000 0000 000000
2017-02-10 02:49:31,0.12,14.06,0.00,23.20,26.57,30.33,14.88,56.60,1034.21,2026.18,939.09,1170.99,1300.95,599.95,605.91,43.73,0000 0000 0000 0000 000000
2017-02-10 02:54:32,0.21,14.07,0.00,23.19,26.57,30.27,14.82,56.47,1034.27,2026.10,938.70,1170.48,1300.22,600.00,605.96,43.78,0000 0000 0000 0000 000000
2017-02-10 02:59:34,0.11,14.08,0.00,23.17,26.56,30.21,14.81,56.56,1034.26,2026.20,938.03,1170.01,1299.98,599.70,605.70,43.83,0000 0000 0000 0000 000000
2017-02-10 03:04:35,0.12,14.08,0.00,23.12,26.55,30.18,14.87,56.63,1034.28,2026.22,937.67,1169.92,1299.44,599.81,605.94,43.88,0000 0000 0000 0000 000000
2017-02-10 03:09:36,0.14,14.09,0.00,23.12,26.55,30.11,14.91,56.49,1034.49,2026.15,937.03,1169.17,1299.01,600.03,606.26,43.93,0000 0000 0000 0000 000000
2017-02-10 03:14:37,0.14,14.09,0.00,23.12,26.55,30.11,14.89,56.46,1034.46,2026.24,936.72,1168.99,1298.65,599.82,606.01,43.98,0000 0000 0000 0000 000000
2017-02-10 03:19:38,0.15,14.11,0.00,23.28,26.55,30.14,14.87,56.31,1034.58,2026.32,936.03,1168.59,1298.02,599.84,605.87,44.03,0000 0000 0000 0000 000000
2017-02-10 03:24:39,0.09,14.11,0.00,23.34,26.55,30.24,14.85,56.44,1034.65,2026.26,935.79,1168.03,1297.76,600.05,605.95,44.08,0000 0000 0000 0000 000000
2017-02-10 03:29:41,0.21,14.12,0.00,23.36,26.57,30.24,14.84,56.45,1034.65,2026.23,935.05,1167.65,1297.04,600.00,605.90,44.13,0000 0000 0000 0000 000000
2017-02-10 03:34:42,0.18,14.13,0.00,23.25,26.57,30.30,14.94,56.44,1034.62,2026.28,934.55,1167.03,1296.61,599.77,605.81,44.18,0000 0000 0000 0000 000000
2017-02-10 03:39:43,0.07,14.14,0.00,23.19,26.57,30.32,14.85,56.48,1034.47,2026.23,934.00,1166.81,1296.02,600.01,606.16,44.23,0000 0000 0000 0000 000000
2017-02-10 03:44:44,0.24,14.14,0.00,23.19,26.57,30.30,14.88,56.45,1034.45,2026.10,933.29,1166.06,1295.42,599.89,605.97,44.28,0000 0000 0000 0000 000000
2017-02-10 03:49:46,0.14,14.15,0.00,23.33,26.57,30.27,14.90,56.44,1034.31,2026.11,932.69,1165.75,1294.95,600.25,606.05,44.33,0000 0000 0000 0000 000000
2017-02-10 03:54:47,0.19,14.17,0.00,23.34,26.57,30.28,14.91,56.33,1034.44,2026.22,932.02,1165.04,1294.11,599.95,605.70,44.39,0000 0000 0000 0000 000000
2017-02-10 03:59:49,0.23,14.17,0.00,23.33,26.58,30.29,14.86,56.52,1034.50,2026.26,931.32,1164.62,1293.68,600.15,606.01,44.44,0000 0000 0000 0000 000000
2017-02-10 04:04:50,0.17,14.18,0.00,23.31,26.59,30.30,14.82,56.61,1034.47,2026.12,930.56,1164.01,1292.98,599.75,605.57,44.49,0000 0000 0000 0000 000000
2017-02-10 04:09:51,0.26,14.19,0.00,23.24,26.60,30.31,15.01,56.58,1034.36,2026.11,929.73,1163.26,1292.14,600.10,606.06,44.54,0000 0000 0000 0000 000000
2017-02-10 04:14:53,0.23,14.21,0.00,23.22,26.60,30.33,14.87,56.42,1034.34,2026.12,928.87,1162.62,1291.34,599.81,605.84,44.59,0000 0000 0000 0000 000000
2017-02-10 04:19:54,0.21,14.22,0.00,23.19,26.60,30.27,14.94,56.46,1034.27,2026.09,927.95,1161.96,1290.57,600.04,606.05,44.64,0000 0000 0000 0000 000000
2017-02-10 04:24:55,0.28,14.23,0.00,23.28,26.60,30.22,14.90,56.51,1034.27,2026.16,927.02,1161.14,1289.76,600.03,605.79,44.69,0000 0000 0000 0000 000000
2017-02-10 04:29:57,0.25,14.25,0.00,23.38,26.60,30.24,14.89,56.63,1034.25,2026.12,926.08,1160.53,1288.95,600.08,605.70,44.74,0000 0000 0000 0000 000000
2017-02-10 04:34:58,0.24,14.26,0.00,23.37,26.60,30.29,14.87,56.58,1034.21,2026.04,925.17,1159.81,1288.08,600.18,605.80,44.79,0000 0000 0000 0000 000000
2017-02-10 04:39:59,0.27,14.27,0.00,23.30,26.60,30.30,14.85,56.72,1034.20,2026.06,924.21,1159.04,1287.22,599.85,605.58,44.84,0000 0000 0000 0000 000000
2017-02-10 04:45:01,0.30,14.29,0.00,23.26,26.60,30.33,14.84,56.74,1034.20,2026.10,923.26,1158.29,1286.42,599.82,605.78,44.89,0000 0000 0000 0000 000000
2017-02-10 04:50:02,0.28,14.30,0.00,23.21,26.60,30.30,14.83,56.87,1034.20,2026.11,922.22,1157.55,1285.55,600.13,606.11,44.94,0000 0000 0000 0000 000000
2017-02-10 04:55:03,0.27,14.32,0.00,23.15,26.60,30.23,14.88,56.75,1034.20,2026.14,921.17,1156.74,1284.62,600.11,606.13,44.99,0000 0000 0000 0000 000000
2017-02-10 05:00:04,0.28,14.33,0.00,23.30,26.60,30.22,14.80,56.81,1034.20,2026.18,920.10,1155.90,1283.73,599.66,605.38,45.04,0000 0000 0000 0000 000000
2017-02-10 05:05:06,0.31,14.35,0.00,23.32,26.60,30.24,14.83,56.93,1034.20,2026.07,918.98,1155.03,1282.71,600.07,605.75,45.09,0000 0000 0000 0000 000000
2017-02-10 05:10:07,0.32,14.36,0.00,23.31,26.60,30.27,14.82,56.88,1034.20,2026.06,917.89,1154.14,1281.75,599.80,605.67,45.14,0000 0000 0000 0000 000000
2017-02-10 05:15:08,0.32,14.38,0.00,23.20,26.60,30.31,14.99,56.88,1034.20,2026.08,916.81,1153.35,1280.81,600.24,606.15,45.20,0000 0000 0000 0000 000000
2017-02-10 05:20:10,0.34,14.39,0.00,23.15,26.60,30.33,14.93,57.10,1034.20,2026.08,915.71,1152.51,1279.82,599.79,605.89,45.25,0000 0000 0000 0000 000000
2017-02-10 05:25:11,0.32,14.41,0.00,23.09,26.60,30.28,14.84,56.85,1034.20,2026.11,914.50,1151.62,1278.90,599.74,605.98,45.30,0000 0000 0000 0000 000000
2017-02-10 05:30:12,0.26,14.43,0.00,23.02,26.60,30.18,14.93,56.88,1034.21,2026.14,913.42,1150.90,1277.92,600.28,606.53,45.35,0000 0000 0000 0000 000000
2017-02-10 05:35:14,0.31,14.44,0.00,23.00,26.58,30.16,14.93,56.75,1034.27,2026.11,912.31,1150.05,1276.84,600.54,606.77,45.40,0000 0000 0000 0000 000000
2017-02-10 05:40:15,0.31,14.46,0.00,22.97,26.57,30.08,15.00,56.74,1034.52,2026.08,911.24,1149.16,1275.86,600.27,606.83,45.45,0000 0000 0000 0000 000000
2017-02-10 05:45:16,0.33,14.48,0.00,22.95,26.57,30.07,14.91,56.74,1034.55,2026.12,910.10,1148.33,1274.86,600.05,606.74,45.50,0000 0000 0000 0000 000000
2017-02-10 05:50:18,0.35,14.49,0.00,22.96,26.57,30.07,14.93,56.76,1034.42,2026.22,908.99,1147.49,1273.88,600.15,606.75,45.55,0000 0000 0000 0000 000000
2017-02-10 05:55:19,0.34,14.51,0.00,22.96,26.56,30.00,14.86,56.62,1034.33,2026.29,907.88,1146.66,1272.89,600.03,606.51,45.60,0000 0000 0000 0000 000000
2017-02-10 06:00:20,0.31,14.52,0.00,22.96,26.55,29.99,14.89,56.65,1034.31,2026.50,906.81,1145.84,1271.93,599.86,606.32,45.65,0000 0000 0000 0000 000000
2017-02-10 06:05:21,0.29,14.54,0.00,22.98,26.55,29.99,14.87,56.64,1034.33,2026.50,905.70,1144.96,1270.91,599.39,605.78,45.70,0000 0000 0000 0000 000000
2017-02-10 06:10:23,0.40,14.56,0.00,22.98,26.55,30.00,14.95,56.64,1034.39,2026.64,904.57,1144.07,1269.92,600.15,606.61,45.75,0000 0000 0000 0000 000000
2017-02-10 06:15:24,0.28,14.57,0.00,23.05,26.55,29.98,14.79,56.48,1034.54,2026.42,903.49,1143.15,1268.92,599.66,606.12,45.80,0000 0000 0000 0000 000000
2017-02-10 06:20:25,0.34,14.59,0.00,23.24,26.55,30.12,14.87,56.54,1034.51,2026.57,902.36,1142.28,1267.94,599.89,605.93,45.85,0000 0000 0000 0000 000000
2017-02-10 06:25:27,0.30,14.61,0.00,23.21,26.55,30.21,14.87,56.90,1034.23,2026.56,901.35,1141.50,1266.95,599.96,605.80,45.90,0000 0000 0000 0000 000000
2017-02-10 06:30:28,0.30,14.62,0.00,23.21,26.55,30.26,14.82,56.83,1034.21,2026.70,900.20,1140.78,1266.06,599.77,605.65,45.95,0000 0000 0000 0000 000000
2017-02-10 06:35:29,0.27,14.64,0.00,23.17,26.57,30.27,14.90,56.78,1034.25,2026.74,898.94,1140.02,1265.29,599.86,605.92,46.00,0000 0000 0000 0000 000000
2017-02-10 06:40:31,0.31,14.65,0.00,23.09,26.57,30.34,14.87,56.73,1034.57,2026.51,897.89,1139.17,1264.34,599.86,606.32,46.05,0000 0000 0000 0000 000000
2017-02-10 06:45:32,0.30,14.67,0.00,23.04,26.57,30.27,14.89,56.68,1034.68,2026.63,896.90,1138.44,1263.54,600.17,606.78,46.10,0000 0000 0000 0000 000000
2017-02-10 06:50:33,0.23,14.68,0.00,23.05,26.57,30.20,14.86,56.57,1034.68,2026.41,895.98,1137.74,1262.62,600.06,606.59,46.15,0000 0000 0000 0000 000000
2017-02-10 06:55:35,0.26,14.70,0.00,23.05,26.57,30.17,14.95,56.70,1034.69,2026.46,895.03,1136.96,1261.78,600.09,606.63,46.21,0000 0000 0000 0000 000000
2017-02-10 07:00:36,0.26,14.71,0.00,23.01,26.57,30.09,14.82,56.84,1034.68,2026.24,894.02,1136.12,1260.88,599.90,606.51,46.26,0000 0000 0000 0000 000000
2017-02-10 07:05:37,0.32,14.72,0.00,23.00,26.56,30.06,14.84,56.83,1034.68,2026.32,893.03,1135.41,1260.00,600.09,606.59,46.31,0000 0000 0000 0000 000000
2017-02-10 07:10:38,0.27,14.74,0.00,23.07,26.55,30.06,14.86,56.72,1034.68,2026.16,892.05,1134.62,1259.09,600.01,606.37,46.36,0000 0000 0000 0000 000000
2017-02-10 07:15:39,0.30,14.75,0.00,23.20,26.55,30.12,14.82,56.75,1034.69,2026.36,891.08,1133.90,1258.17,599.82,606.00,46.41,0000 0000 0000 0000 000000
2017-02-10 07:20:40,0.32,14.77,0.00,23.13,26.55,30.19,14.83,56.66,1034.69,2026.47,890.13,1133.03,1257.36,599.51,605.88,46.46,0000 0000 0000 0000 000000
2017-02-10 07:25:42,0.32,14.78,0.00,23.09,26.55,30.20,14.91,56.75,1034.69,2026.57,889.42,1132.14,1256.39,600.13,606.66,46.51,0000 0000 0000 0000 000000
2017-02-10 07:30:43,0.25,14.79,0.00,23.15,26.55,30.19,14.87,56.86,1034.71,2026.39,888.49,1131.48,1255.62,599.79,606.13,46.56,0000 0000 0000 0000 000000
2017-02-10 07:35:44,0.22,14.81,0.00,23.22,26.55,30.24,14.85,56.98,1034.71,2026.32,887.61,1130.81,1254.74,599.81,605.95,46.61,0000 0000 0000 0000 000000
2017-02-10 07:40:45,0.28,14.82,0.00,23.17,26.56,30.26,14.97,57.09,1034.78,2026.40,886.58,1130.01,1253.88,600.13,606.48,46.66,0000 0000 0000 0000 000000
2017-02-10 07:45:47,0.29,14.84,0.00,23.06,26.56,30.28,14.93,57.00,1034.86,2026.30,885.58,1129.17,1253.00,600.16,606.68,46.71,0000 0000 0000 0000 000000
2017-02-10 07:50:48,0.33,14.86,0.00,23.02,26.55,30.24,14.89,57.01,1034.91,2026.49,884.63,1128.48,1252.11,599.89,606.70,46.76,0000 0000 0000 0000 000000
2017-02-10 07:55:49,0.27,14.87,0.00,22.99,26.55,30.21,14.85,56.98,1034.77,2026.52,883.65,1127.79,1251.26,600.27,606.94,46.81,0000 0000 0000 0000 000000
2017-02-10 08:00:51,0.29,14.88,0.00,22.97,26.55,30.12,14.89,56.96,1034.70,2026.50,882.62,1126.99,1250.32,599.67,606.39,46.86,0000 0000 0000 0000 000000
2017-02-10 08:05:52,0.31,14.90,0.00,22.92,26.55,30.03,14.96,56.98,1034.71,2026.50,881.62,1126.13,1249.46,600.24,607.03,46.91,0000 0000 0000 0000 000000
2017-02-10 08:10:53,0.35,14.91,0.00,22.92,26.53,29.98,14.92,56.96,1034.69,2026.61,880.62,1125.41,1248.60,599.73,606.54,46.96,0000 0000 0000 0000 000000
2017-02-10 08:15:54,0.25,14.93,0.00,22.91,26.52,30.07,14.86,56.82,1034.70,2026.77,879.67,1124.72,1247.80,599.81,606.63,47.01,0000 0000 0000 0000 000000
2017-02-10 08:20:56,0.28,14.94,0.00,22.89,26.52,30.02,14.90,56.93,1034.72,2026.59,878.61,1123.92,1246.79,599.65,606.58,47.06,0000 0000 0000 0000 000000
2017-02-10 08:25:57,0.34,14.96,0.00,22.89,26.52,30.00,14.92,56.73,1034.72,2026.87,877.60,1123.08,1245.91,600.06,606.89,47.12,0000 0000 0000 0000 000000
2017-02-10 08:30:59,0.33,14.98,0.00,22.88,26.50,29.97,14.86,56.76,1034.70,2026.92,876.57,1122.30,1244.98,599.70,606.53,47.17,0000 0000 0000 0000 000000
2017-02-10 08:36:00,0.33,15.00,0.00,22.88,26.50,29.97,14.99,56.69,1034.69,2026.93,875.51,1121.49,1244.05,600.21,607.19,47.22,0000 0000 0000 0000 000000
2017-02-10 08:41:02,0.31,15.01,0.00,22.89,26.50,29.97,14.86,56.88,1034.70,2026.94,874.45,1120.67,1243.10,599.99,606.83,47.27,0000 0000 0000 0000 000000
2017-02-10 08:46:03,0.30,15.03,0.00,22.86,26.50,29.98,14.91,56.88,1034.68,2026.93,873.31,1119.84,1242.05,599.92,606.86,47.32,0000 0000 0000 0000 000000
2017-02-10 08:51:05,0.33,15.05,0.00,22.85,26.50,29.98,14.88,56.91,1034.68,2026.93,872.20,1118.92,1241.05,599.85,606.79,47.37,0000 0000 0000 0000 000000
2017-02-10 08:56:06,0.32,15.06,0.00,22.84,26.49,30.01,14.92,56.97,1034.68,2026.89,871.09,1118.06,1240.07,599.98,606.96,47.42,0000 0000 0000 0000 000000
2017-02-10 09:01:07,0.35,15.08,0.00,22.83,26.49,30.00,14.93,56.93,1034.68,2026.91,869.92,1117.17,1239.10,600.17,607.12,47.47,0000 0000 0000 0000 000000
2017-02-10 09:06:09,0.36,15.10,0.00,22.83,26.48,30.01,14.93,56.98,1034.69,2026.91,868.80,1116.29,1238.10,599.94,606.78,47.52,0000 0000 0000 0000 000000
2017-02-10 09:11:10,0.34,15.11,0.00,22.85,26.48,29.99,14.96,56.90,1034.69,2026.85,867.66,1115.51,1237.15,600.30,607.15,47.57,0000 0000 0000 0000 000000
2017-02-10 09:16:11,0.35,15.13,0.00,22.82,26.47,30.01,14.92,56.92,1034.69,2026.86,866.51,1114.59,1236.15,599.87,606.86,47.62,0000 0000 0000 0000 000000
2017-02-10 09:21:12,0.34,15.15,0.00,22.82,26.47,29.98,14.85,56.87,1034.70,2026.78,865.34,1113.61,1235.11,599.97,607.01,47.67,0000 0000 0000 0000 000000
2017-02-10 09:26:13,0.33,15.17,0.00,22.82,26.47,29.99,14.90,57.09,1034.69,2026.92,864.20,1112.80,1234.07,599.87,606.72,47.72,0000 0000 0000 0000 000000
2017-02-10 09:31:15,0.31,15.19,0.00,22.80,26.47,30.00,14.94,57.07,1034.69,2026.90,863.01,1111.92,1233.06,600.08,607.11,47.77,0000 0000 0000 0000 000000
2017-02-10 09:36:16,0.38,15.21,0.00,22.80,26.47,30.00,14.90,56.98,1034.68,2026.90,861.81,1111.02,1232.04,599.79,606.93,47.82,0000 0000 0000 0000 000000
2017-02-10 09:41:18,0.38,15.22,0.00,22.81,26.47,30.00,14.90,57.11,1034.68,2026.94,860.68,1110.12,1231.03,599.99,606.81,47.87,0000 0000 0000 0000 000000
2017-02-10 09:46:19,0.35,15.24,0.00,22.80,26.47,30.00,14.94,57.13,1034.68,2026.97,859.59,1109.25,1230.02,599.83,606.87,47.92,0000 0000 0000 0000 000000
2017-02-10 09:51:20,0.34,15.26,0.00,22.80,26.47,30.00,14.98,57.09,1034.69,2026.96,858.46,1108.46,1229.08,600.22,607.22,47.98,0000 0000 0000 0000 000000
2017-02-10 09:56:22,0.34,15.27,0.00,22.82,26.47,29.99,14.87,57.02,1034.71,2026.93,857.35,1107.55,1228.09,599.73,606.68,48.03,0000 0000 0000 0000 000000
2017-02-10 10:01:23,0.30,15.29,0.00,22.82,26.48,30.00,14.94,57.06,1034.71,2026.90,856.27,1106.71,1227.09,600.03,606.96,48.08,0000 0000 0000 0000 000000
2017-02-10 10:06:24,0.31,15.31,0.00,22.82,26.48,30.00,14.94,57.15,1034.71,2026.94,855.11,1105.86,1226.09,600.03,607.09,48.13,0000 0000 0000 0000 000000
2017-02-10 10:11:26,0.40,15.33,0.00,22.86,26.48,30.03,14.99,57.08,1034.68,2026.95,853.83,1104.95,1225.06,600.44,607.36,48.18,0000 0000 0000 0000 000000
2017-02-10 10:16:27,0.37,15.35,0.00,23.05,26.50,30.10,14.99,57.28,1034.69,2026.97,852.71,1104.03,1224.08,599.94,606.46,48.23,0000 0000 0000 0000 000000
2017-02-10 10:21:28,0.36,15.36,0.00,23.03,26.50,30.18,14.86,57.17,1034.68,2026.93,851.55,1103.11,1223.06,599.95,606.58,48.28,0000 0000 0000 0000 000000
2017-02-10 10:26:29,0.35,15.38,0.00,22.93,26.50,30.21,14.92,57.32,1034.68,2026.92,850.46,1102.22,1222.02,600.13,606.94,48.33,0000 0000 0000 0000 000000
2017-02-10 10:31:31,0.35,15.40,0.00,22.88,26.50,30.21,14.91,57.37,1034.69,2026.88,849.33,1101.29,1220.99,599.52,606.44,48.38,0000 0000 0000 0000 000000
2017-02-10 10:36:32,0.34,15.42,0.00,22.83,26.50,30.17,14.91,57.44,1034.72,2026.83,848.19,1100.44,1220.02,599.74,606.76,48.43,0000 0000 0000 0000 000000
2017-02-10 10:41:34,0.35,15.43,0.00,22.80,26.50,30.14,14.90,57.30,1034.85,2026.94,847.08,1099.59,1219.05,599.53,606.70,48.48,0000 0000 0000 0000 000000
2017-02-10 10:46:35,0.29,15.45,0.00,22.78,26.50,30.04,14.93,57.27,1034.95,2026.96,845.99,1098.85,1218.08,600.56,607.80,48.53,0000 0000 0000 0000 000000
2017-02-10 10:51:36,0.31,15.47,0.00,22.76,26.50,30.01,14.88,57.30,1035.12,2026.93,844.96,1098.00,1217.17,599.64,607.02,48.58,0000 0000 0000 0000 000000
2017-02-10 10:56:37,0.34,15.49,0.00,22.76,26.49,30.00,14.97,57.23,1035.03,2026.95,843.96,1097.13,1216.23,600.22,607.60,48.63,0000 0000 0000 0000 000000
2017-02-10 11:01:39,0.35,15.50,0.00,22.75,26.48,29.99,14.88,57.25,1034.89,2026.94,842.93,1096.31,1215.32,599.67,606.93,48.68,0000 0000 0000 0000 000000
2017-02-10 11:06:40,0.39,15.52,0.00,22.73,26.47,29.95,14.92,57.17,1035.08,2026.95,841.75,1095.50,1214.47,599.90,607.31,48.73,0000 0000 0000 0000 000000
2017-02-10 11:11:42,0.37,15.54,0.00,22.72,26.47,29.94,14.94,57.10,1034.97,2026.97,840.58,1094.62,1213.49,600.08,607.43,48.78,0000 0000 0000 0000 000000
2017-02-10 11:16:43,0.32,15.56,0.00,22.73,26.47,29.97,14.94,57.37,1035.05,2026.99,839.53,1093.75,1212.53,600.35,607.60,48.83,0000 0000 0000 0000 000000
2017-02-10 11:21:44,0.32,15.57,0.00,22.73,26.46,29.91,14.90,57.34,1035.13,2026.98,838.40,1092.90,1211.54,600.15,607.60,48.88,0000 0000 0000 0000 000000
2017-02-10 11:26:46,0.35,15.59,0.00,22.73,26.45,29.91,14.87,57.37,1035.11,2026.97,837.25,1092.01,1210.51,599.71,607.19,48.94,0000 0000 0000 0000 000000
2017-02-10 11:31:47,0.34,15.61,0.00,22.71,26.45,29.89,14.97,57.26,1035.16,2026.97,836.11,1091.09,1209.47,600.31,607.92,48.99,0000 0000 0000 0000 000000
2017-02-10 11:36:48,0.36,15.63,0.00,22.69,26.45,29.91,14.87,57.27,1035.10,2026.97,834.96,1090.18,1208.44,599.87,607.41,49.04,0000 0000 0000 0000 000000
2017-02-10 11:41:49,0.36,15.65,0.00,22.69,26.44,29.88,14.99,57.60,1035.02,2026.98,833.89,1089.33,1207.49,599.99,607.40,49.09,0000 0000 0000 0000 000000
2017-02-10 11:46:51,0.41,15.66,0.00,22.67,26.42,29.88,14.93,57.49,1035.10,2026.99,832.69,1088.47,1206.44,599.83,607.46,49.14,0000 0000 0000 0000 000000
2017-02-10 11:51:52,0.39,15.69,0.00,22.66,26.42,29.91,15.02,57.42,1035.15,2026.99,831.52,1087.49,1205.35,599.99,607.56,49.19,0000 0000 0000 0000 000000
2017-02-10 11:56:53,0.27,15.70,0.00,22.66,26.42,29.90,14.95,57.47,1035.00,2026.99,830.54,1086.84,1204.34,599.73,607.34,49.24,0000 0000 0000 0000 000000
2017-02-10 12:01:55,0.35,15.72,0.00,22.67,26.42,29.88,14.91,57.42,1034.73,2026.98,829.44,1085.93,1203.29,599.63,606.95,49.29,0000 0000 0000 0000 000000
2017-02-10 12:06:56,0.35,15.74,0.00,22.66,26.40,29.84,14.93,57.43,1034.69,2026.99,828.34,1085.03,1202.28,600.03,607.37,49.34,0000 0000 0000 0000 000000
2017-02-10 12:11:58,0.36,15.76,0.00,22.67,26.40,29.88,14.85,57.39,1034.69,2026.99,827.12,1084.11,1201.22,599.35,606.71,49.39,0000 0000 0000 0000 000000
2017-02-10 12:16:59,0.40,15.77,0.00,22.67,26.40,29.88,14.96,57.45,1034.69,2026.99,825.91,1083.21,1200.16,600.14,607.55,49.44,0000 0000 0000 0000 000000
2017-02-10 12:22:00,0.40,15.79,0.00,22.64,26.40,29.86,14.96,57.51,1034.68,2026.99,824.74,1082.23,1199.04,600.25,607.64,49.49,0000 0000 0000 0000 000000
2017-02-10 12:27:02,0.39,15.81,0.00,22.63,26.39,29.86,15.00,57.68,1034.68,2026.99,823.64,1081.33,1197.93,600.27,607.70,49.54,0000 0000 0000 0000 000000
2017-02-10 12:32:03,0.41,15.83,0.00,22.64,26.38,29.85,15.03,57.61,1034.71,2026.99,822.42,1080.36,1196.80,600.02,607.44,49.59,0000 0000 0000 0000 000000
2017-02-10 12:37:04,0.38,15.85,0.00,22.61,26.37,29.82,14.91,57.53,1034.69,2026.99,821.17,1079.34,1195.73,599.93,607.35,49.64,0000 0000 0000 0000 000000
2017-02-10 12:42:05,0.44,15.88,0.00,22.64,26.37,29.83,14.89,57.49,1034.72,2026.99,819.84,1078.33,1194.61,599.90,607.31,49.69,0000 0000 0000 0000 000000
2017-02-10 12:47:07,0.44,15.90,0.00,22.63,26.37,29.84,14.91,57.58,1034.73,2026.99,818.56,1077.28,1193.43,599.87,607.17,49.74,0000 0000 0000 0000 000000
2017-02-10 12:52:08,0.39,15.92,0.00,22.58,26.37,29.83,14.86,57.60,1034.75,2027.00,817.24,1076.21,1192.21,599.77,607.22,49.80,0000 0000 0000 0000 000000
2017-02-10 12:57:09,0.44,15.94,0.00,22.60,26.37,29.82,14.93,57.64,1035.00,2027.00,815.88,1075.14,1190.95,600.22,607.86,49.85,0000 0000 0000 0000 000000